Weather History for Bigfork, MN

Change the Weather History Date:

Friday, December 14, 2012

  Actual Average (KGPZ) Record (KGPZ)
Temperature  
Mean Temperature 14 °F -  
Max Temperature 28 °F 23 °F 50 °F (1998)
Min Temperature 0 °F 4 °F -30 °F (1926)
Degree Days  
Heating Degree Days 51    
Moisture  
Dew Point 12 °F    
Average Humidity 82    
Maximum Humidity 93    
Minimum Humidity 74    
Precipitation  
Precipitation 0.00 in - - ()
Sea Level Pressure  
Sea Level Pressure 29.99 in    
Wind  
Wind Speed 3 mph (SE)    
Max Wind Speed 12 mph    
Max Gust Speed 16 mph    
Visibility 10 miles    
Events      
Averages and records for this station are not official NWS values.
T = Trace of Precipitation, MM = Missing Value Source: NWS Daily Summary

Daily Weather History Graph

Daily Weather History Graph

Search for Another Location

Airport:

Trip Planner

Search our weather history database for the weather conditions in past years. The results will help you decide how hot, cold, wet, or windy it might be!

Date:

Astronomy

Dec. 14, 2012 Rise Set
Actual Time 7:56 AM CST 4:22 PM CST
Civil Twilight 7:20 AM CST 4:58 PM CST
Nautical Twilight 6:40 AM CST 5:38 PM CST
Astronomical Twilight 6:03 AM CST 6:15 PM CST
Moon 8:57 AM CST (12/14) 6:20 PM CST (12/14)
Length of Visible Light 9h 38m
Length of Day
8h 26m
Waxing Crescent, 3% of the Moon is Illuminated
Dec 14
Waxing Crescent
Dec 19
First Quarter
Dec 28
Full
Jan 4
Last Quarter
Jan 11
New

Hourly Weather History & Observations

Time (CST) Temp. Windchill Dew Point Humidity Pressure Visibility Wind Dir Wind Speed Gust Speed Precip Events Conditions
12:13 AM 1.4 °F - -2.2 °F 85% 30.09 in 10.0 mi Calm Calm - N/A   Clear
12:33 AM 1.4 °F - -2.2 °F 85% 30.09 in 10.0 mi Calm Calm - N/A   Clear
12:53 AM 1.4 °F - -2.2 °F 85% 30.09 in 10.0 mi Calm Calm - N/A   Clear
1:13 AM 1.4 °F - -2.2 °F 85% 30.09 in 10.0 mi Calm Calm - N/A   Clear
1:33 AM 1.4 °F - -2.2 °F 85% 30.08 in 10.0 mi Calm Calm - N/A   Clear
1:53 AM 1.4 °F - -2.2 °F 85% 30.09 in 10.0 mi Calm Calm - N/A   Clear
2:13 AM 1.4 °F - -4.0 °F 78% 30.09 in 10.0 mi Calm Calm - N/A   Clear
2:33 AM 1.4 °F - -2.2 °F 85% 30.09 in 10.0 mi Calm Calm - N/A   Clear
2:53 AM 1.4 °F - -4.0 °F 78% 30.10 in 10.0 mi Calm Calm - N/A   Clear
3:13 AM 1.4 °F - -4.0 °F 78% 30.10 in 10.0 mi Calm Calm - N/A   Clear
3:33 AM 1.4 °F - -4.0 °F 78% 30.09 in 10.0 mi Calm Calm - N/A   Clear
3:53 AM 1.4 °F - -2.2 °F 85% 30.08 in 10.0 mi Calm Calm - N/A   Clear
4:13 AM 1.4 °F - -4.0 °F 78% 30.08 in 10.0 mi Calm Calm - N/A   Clear
4:33 AM 1.4 °F - -4.0 °F 78% 30.07 in 10.0 mi Calm Calm - N/A   Clear
4:53 AM 1.4 °F - -4.0 °F 78% 30.07 in 10.0 mi Calm Calm - N/A   Clear
5:13 AM 1.4 °F - -4.0 °F 78% 30.07 in 10.0 mi Calm Calm - N/A   Clear
5:33 AM 1.4 °F - -4.0 °F 78% 30.06 in 10.0 mi Calm Calm - N/A   Clear
5:53 AM 1.4 °F - -2.2 °F 85% 30.06 in 10.0 mi Calm Calm - N/A   Clear
6:13 AM 1.4 °F - -2.2 °F 85% 30.05 in 10.0 mi Calm Calm - N/A   Clear
6:33 AM 1.4 °F - -4.0 °F 78% 30.05 in 10.0 mi Calm Calm - N/A   Clear
6:53 AM -0.4 °F - -4.0 °F 85% 30.06 in 10.0 mi Calm Calm - N/A   Clear
7:13 AM 1.4 °F - -4.0 °F 78% 30.06 in 10.0 mi Calm Calm - N/A   Clear
7:33 AM 1.4 °F - -4.0 °F 78% 30.05 in 10.0 mi Calm Calm - N/A   Clear
7:53 AM 1.4 °F - -2.2 °F 85% 30.05 in 10.0 mi Calm Calm - N/A   Clear
8:13 AM 6.8 °F - 3.2 °F 85% 30.05 in 10.0 mi Calm Calm - N/A   Clear
8:33 AM 8.6 °F - 5.0 °F 85% 30.05 in 10.0 mi Calm Calm - N/A   Clear
8:53 AM 10.4 °F - 6.8 °F 85% 30.05 in 10.0 mi Calm Calm - N/A   Clear
9:13 AM 12.2 °F - 8.6 °F 85% 30.05 in 10.0 mi Calm Calm - N/A   Clear
9:33 AM 15.8 °F - 12.2 °F 86% 30.05 in 10.0 mi Calm Calm - N/A   Clear
9:53 AM 17.6 °F 12.3 °F 14.0 °F 86% 30.06 in 10.0 mi SE 3.5 mph - N/A   Clear
10:13 AM 19.4 °F 12.8 °F 15.8 °F 86% 30.06 in 10.0 mi SE 4.6 mph - N/A   Clear
10:33 AM 19.4 °F 11.5 °F 15.8 °F 86% 30.06 in 10.0 mi SE 5.8 mph - N/A   Clear
10:54 AM 19.4 °F 9.5 °F 15.8 °F 86% 30.05 in 10.0 mi SE 8.1 mph - N/A   Clear
11:13 AM 21.2 °F 12.6 °F 15.8 °F 80% 30.05 in 10.0 mi SE 6.9 mph - N/A   Clear
11:33 AM 23.0 °F 14.7 °F 15.8 °F 74% 30.05 in 10.0 mi SE 6.9 mph - N/A   Clear
11:53 AM 21.2 °F 13.6 °F 15.8 °F 80% 30.04 in 10.0 mi SSE 5.8 mph - N/A   Clear
12:13 PM 23.0 °F 13.9 °F 15.8 °F 74% 30.02 in 10.0 mi SE 8.1 mph - N/A   Clear
12:33 PM 23.0 °F 15.8 °F 17.6 °F 80% 30.01 in 10.0 mi SE 5.8 mph - N/A   Clear
12:53 PM 24.8 °F 17.9 °F 17.6 °F 74% 30.01 in 10.0 mi ESE 5.8 mph - N/A   Clear
1:13 PM 24.8 °F 16.1 °F 19.4 °F 80% 29.98 in 10.0 mi ESE 8.1 mph - N/A   Clear
1:34 PM 26.6 °F 19.1 °F 19.4 °F 74% 29.97 in 10.0 mi SE 6.9 mph - N/A   Clear
1:53 PM 26.6 °F 19.1 °F 19.4 °F 74% 29.95 in 10.0 mi ESE 6.9 mph - N/A   Clear
2:13 PM 28.4 °F 18.5 °F 21.2 °F 74% 29.95 in 10.0 mi SE 11.5 mph - N/A   Clear
2:33 PM 28.4 °F 19.1 °F 21.2 °F 74% 29.94 in 10.0 mi SE 10.4 mph - N/A   Clear
2:53 PM 28.4 °F 20.4 °F 21.2 °F 74% 29.94 in 10.0 mi SE 8.1 mph - N/A   Clear
3:13 PM 28.4 °F 19.1 °F 21.2 °F 74% 29.93 in 10.0 mi SE 10.4 mph - N/A   Clear
3:33 PM 28.4 °F 19.7 °F 21.2 °F 74% 29.93 in 10.0 mi SSE 9.2 mph 16.1 mph N/A   Clear
3:53 PM 28.4 °F 20.4 °F 21.2 °F 74% 29.93 in 10.0 mi SE 8.1 mph - N/A   Clear
4:13 PM 26.6 °F 17.5 °F 23.0 °F 86% 29.93 in 10.0 mi SE 9.2 mph - N/A   Clear
4:33 PM 26.6 °F 18.2 °F 23.0 °F 86% 29.92 in 10.0 mi SE 8.1 mph - N/A   Clear
4:53 PM 26.6 °F 21.2 °F 21.2 °F 80% 29.92 in 10.0 mi SE 4.6 mph - N/A   Clear
5:13 PM 26.6 °F 17.5 °F 21.2 °F 80% 29.92 in 10.0 mi SE 9.2 mph - N/A   Clear
5:33 PM 26.6 °F 18.2 °F 21.2 °F 80% 29.90 in 10.0 mi SE 8.1 mph - N/A   Clear
5:53 PM 26.6 °F 19.1 °F 21.2 °F 80% 29.90 in 10.0 mi SE 6.9 mph - N/A   Clear
6:33 PM 26.6 °F 18.2 °F 21.2 °F 80% 29.89 in 10.0 mi SE 8.1 mph - N/A   Clear
6:53 PM 26.6 °F 17.5 °F 21.2 °F 80% 29.89 in 10.0 mi SE 9.2 mph - N/A   Clear
7:13 PM 26.6 °F 19.1 °F 23.0 °F 86% 29.89 in 10.0 mi SE 6.9 mph - N/A   Clear
7:33 PM 24.8 °F 16.9 °F 21.2 °F 86% 29.89 in 10.0 mi SE 6.9 mph - N/A   Clear
7:53 PM 26.6 °F 19.1 °F 21.2 °F 80% 29.89 in 10.0 mi SE 6.9 mph - N/A   Clear
8:13 PM 26.6 °F 19.1 °F 23.0 °F 86% 29.88 in 10.0 mi SE 6.9 mph - N/A   Clear
8:33 PM 26.6 °F 20.0 °F 23.0 °F 86% 29.88 in 10.0 mi SE 5.8 mph - N/A   Clear
8:53 PM 26.6 °F 16.8 °F 23.0 °F 86% 29.88 in 10.0 mi SE 10.4 mph - N/A   Scattered Clouds
9:13 PM 26.6 °F 17.5 °F 23.0 °F 86% 29.87 in 10.0 mi SE 9.2 mph - N/A   Mostly Cloudy
9:33 PM 26.6 °F 18.2 °F 24.8 °F 93% 29.87 in 10.0 mi SE 8.1 mph - N/A   Mostly Cloudy
9:53 PM 26.6 °F 17.5 °F 24.8 °F 93% 29.87 in 10.0 mi SE 9.2 mph - N/A   Scattered Clouds
10:13 PM 26.6 °F 19.1 °F 23.0 °F 86% 29.86 in 7.0 mi SE 6.9 mph - N/A   Clear
10:33 PM 26.6 °F 18.2 °F 23.0 °F 86% 29.85 in 10.0 mi SE 8.1 mph - N/A   Clear
10:53 PM 26.6 °F 18.2 °F 23.0 °F 86% 29.85 in 10.0 mi ESE 8.1 mph - N/A   Clear
11:13 PM 26.6 °F 19.1 °F 24.8 °F 93% 29.84 in 10.0 mi ESE 6.9 mph - N/A   Clear
11:33 PM 26.6 °F 19.1 °F 24.8 °F 93% 29.84 in 10.0 mi SE 6.9 mph - N/A   Clear
11:53 PM 26.6 °F 19.1 °F 24.8 °F 93% 29.83 in 10.0 mi SE 6.9 mph - N/A   Clear